Location: Brede
(50.9167°N, 0.6000°E)
Time: 01:40:24
(UTC+00:00)

ERBS - Pass Details

Date: 08 August 2020
Orbit: 412 x 421 km, 57.0° (Epoch: 19 September)

Event Time Altitude Azimuth Distance (km) Brightness Sun altitude
Rises 00:33:17 0° 300° (WNW) 2,356 6.3 -22.7°
Reaches altitude 10° 00:35:26 10° 306° (NW) 1,491 5.4 -22.7°
Maximum altitude 00:38:39 47° 22° (NNE) 563 3.2 -22.6°
Enters shadow 00:39:06 43° 49° (NE) 594 3.3 -22.6°
